Dewpoint
70 69 68 68 69 69 69 68 67 68 70 68 68 69 69 72 73 72 72 73 73 73 74 75 76 75 72 74 75 75 74 75 75 73 74 73 71 70 68 69 71 70
70 70 70 69 70 70 71 69 70 69 71 72 70 70 72 72 71 71 72 72 73 72 74 73 75 75 75 73 75 74 74 75 75 70 73 74 73 71 70 70 70 71
69 69 69 68 67 68 66 68 71 70 69 68 70 71 69 71 72 73 73 72 72 71 73 74 75 75 74 74 75 74 72 74 73 72 73 74 73 72 72 70 69 69
69 69 67 66 67 66 66 68 68 70 69 68 69 68 69 67 70 71 73 73 73 73 73 73 74 73 74 74 75 75 73 75 73 74 74 74 73 72 71 71 70 69
67 68 67 67 67 68 68 67 66 66 67 68 68 69 71 72 72 69 71 72 73 72 72 72 73 73 74 75 75 75 73 72 74 75 75 74 74 73 71 70 72 72
68 69 69 67 67 67 66 66 66 65 66 65 66 67 68 69 69 69 68 69 69 68 68 69 71 71 71 73 75 75 73 70 70 74 75 76 73 71 68 72 73 73
65 67 67 67 66 66 66 65 65 66 64 65 67 67 68 68 68 69 69 68 68 70 69 71 73 73 73 73 74 75 75 75 74 75 75 73 74 74 73 73 74 75
63 64 67 66 65 65 66 64 63 64 65 66 64 66 67 66 68 67 68 67 69 70 71 70 73 75 73 71 73 74 74 70 70 75 77 73 74 72 73 75 74 75
63 62 63 63 63 62 62 62 62 63 65 65 63 63 66 66 66 66 69 71 71 71 73 72 73 72 72 71 72 73 73 71 72 73 73 73 73 73 72 73 74 74
64 62 61 61 61 61 61 61 61 62 64 64 63 62 61 66 66 67 69 71 70 71 72 73 73 73 72 72 73 73 73 74 75 74 74 73 74 73 73 73 74 74
64 61 61 63 61 60 60 60 61 60 62 64 63 61 61 62 66 68 69 69 67 68 69 70 70 71 72 73 73 72 73 73 75 75 74 75 76 74 73 73 74 73
68 66 65 65 65 62 61 61 60 61 62 62 64 63 63 62 63 64 65 68 68 68 69 70 72 72 73 73 71 71 71 74 75 74 74 74 74 73 73 74 73 74
71 70 69 68 68 66 63 63 61 61 61 62 63 64 63 62 62 64 65 65 67 67 70 72 73 72 75 75 75 74 75 74 74 74 74 74 74 74 73 74 74 74
73 73 73 72 72 73 70 68 65 63 63 64 64 65 64 63 61 60 63 65 66 68 73 75 75 75 77 77 76 75 74 73 73 74 73 73 74 74 74 75 74 73
73 73 74 75 75 75 74 72 71 71 69 68 68 67 66 64 63 61 64 68 69 71 74 74 75 74 73 73 74 74 74 73 75 74 74 75 75 73 73 73 72 73
75 75 75 76 76 76 76 75 74 73 72 72 72 72 70 69 69 68 67 66 69 72 73 75 74 71 68 68 69 72 73 72 74 74 74 74 73 73 72 71 72 72
74 74 75 75 75 75 76 76 75 74 74 74 73 73 73 73 71 70 71 72 72 71 72 70 69 67 64 64 66 67 72 73 74 74 74 74 73 73 73 72 72 72
74 73 74 74 74 74 75 76 75 74 74 74 74 73 73 73 73 73 74 73 73 71 70 68 66 62 61 63 64 65 67 72 73 73 74 74 74 73 71 72 72 71
73 72 73 72 73 73 74 74 75 73 73 74 74 74 74 73 73 73 72 70 70 70 68 69 68 61 60 62 63 64 66 71 72 74 73 73 72 72 71 71 70 69
72 72 72 72 73 73 73 74 73 73 74 73 74 74 74 73 72 72 71 72 71 70 70 67 67 61 59 61 62 63 65 70 72 70 70 69 69 68 67 67 67 67
72 72 71 72 72 73 73 73 73 73 73 73 73 73 72 71 70 70 70 70 70 69 69 66 64 59 59 60 61 63 66 71 70 68 67 67 67 66 66 64 65 65
71 71 71 71 72 72 72 72 72 72 71 71 70 70 69 68 67 67 67 68 69 68 68 68 67 58 58 60 62 66 68 68 67 65 64 64 64 65 65 65 65 65
71 70 70 71 71 70 71 71 72 70 70 69 67 67 67 66 65 66 67 67 67 68 68 67 66 60 59 61 62 63 65 66 65 64 63 63 64 64 64 63 63 63
70 70 70 70 70 70 70 70 69 68 67 67 65 65 64 65 66 67 67 67 67 67 67 66 65 60 57 57 59 61 65 65 64 63 62 63 64 64 64 64 64 65
71 70 70 69 69 69 69 68 67 67 66 64 63 63 63 65 66 65 64 65 66 66 65 66 65 63 56 57 58 61 64 64 64 63 63 63 63 64 64 64 64 65
71 70 69 70 69 68 67 65 65 64 63 63 63 64 64 65 65 64 63 64 65 65 65 65 65 64 61 56 57 58 61 65 65 64 63 64 64 63 62 63 63 63